Regional Weather Roundup
Issued by NWS Goodland, KS

Home | Current Version | Previous Version | Graphics & Text | Print | Product List | Glossary On
Versions: 1 2 3 4 5 6 7 8 9 10 11 12 13 14 15 16 17 18 19 20 21 22 23 24 25 26 27 28 29 30 31 32 33 34 35 36 37 38 39 40 41 42 43 44 45 46 47 48 49 50
000
ASUS43 KGLD 210159
RWRGLD

GOODLAND FORECAST AREA HOURLY WEATHER ROUNDUP
NATIONAL WEATHER SERVICE GOODLAND KS
800 PM MDT MON APR 20 2015

...OFFICIAL OBSERVATIONS...

CITY           SKY/WX    TMP DP  RH WIND       PRES   REMARKS
GOODLAND KS    CLEAR     46  35  65 N6        29.90R
HILL CITY KS   CLEAR     48  33  56 N3        29.88R
IMPERIAL NEB   CLEAR     48  26  42 NW5       29.87R
MCCOOK NEB     PTCLDY    51  27  39 W6        29.86R
AKRON CO       MOCLDY    42  28  57 N6        29.91R
BURLINGTON CO  PTCLDY    50  30  46 N3        29.91R
LIMON CO       CLOUDY    48  29  47 N8        29.95R
$$

...UNOFFICIAL OBSERVATIONS...

CITY           SKY/WX    TMP DP  RH WIND       PRES   REMARKS
COLBY KS       CLEAR     48  36  61 N6        29.91R
GOVE KS          N/A     52  32  46 MISG        N/A
LENORA KS        N/A     52  32  46 MISG        N/A
NORTON KS      CLEAR     48  27  43 W6        29.86R
SHARON SPRINGS   N/A     51  40  65 MISG        N/A
TRIBUNE KS     PTCLDY    50  41  71 SW5       29.93R
KIT CARSON CO    N/A     53  31  42 MISG        N/A
$$


USA.gov is the U.S. government's official web portal to all federal, state and local government web resources and services.